,,,PA_Meas_PMT16A,,PR_Meas_QMR101_102,,RH_Meas_QMH101,,SR_Meas_QMS101,,TA_Meas_QMH101,,GenWind,,GenWind,
date,time,status,PA,status,PR,status,RH,status,SR,status,TA,status,DirAvg,status,SpdAvg,
2008-07-29, 06:30:04,VALID,1004.18,VALID,0,VALID,95.2008,VALID,44.6499,VALID,23.8221,VALID,360,VALID,0,
2008-07-29, 06:31:04,VALID,1004.16,VALID,0,VALID,95.1245,VALID,46.0578,VALID,23.8398,VALID,360,VALID,0.165234,
2008-07-29, 06:32:04,VALID,1004.18,VALID,0,VALID,95.0635,VALID,47.7674,VALID,23.9177,VALID,360,VALID,0.141016,
2008-07-29, 06:33:04,VALID,1004.17,VALID,0,VALID,94.9872,VALID,49.0747,VALID,24.015,VALID,360,VALID,0.0914062,
2008-07-29, 06:34:04,VALID,1004.18,VALID,0,VALID,94.949,VALID,50.1809,VALID,24.0947,VALID,360,VALID,0,
2008-07-29, 06:35:04,VALID,1004.23,VALID,0,VALID,94.8117,VALID,51.086,VALID,24.2115,VALID,360,VALID,0,
2008-07-29, 06:36:04,VALID,1004.22,VALID,0,VALID,94.5752,VALID,51.6894,VALID,24.2894,VALID,360,VALID,0,
2008-07-29, 06:37:04,VALID,1004.25,VALID,0,VALID,94.2548,VALID,51.7899,VALID,24.3265,VALID,360,VALID,0,
2008-07-29, 06:38:04,VALID,1004.25,VALID,0,VALID,94.0641,VALID,51.991,VALID,24.4451,VALID,360,VALID,0,
2008-07-29, 06:39:04,VALID,1004.3,VALID,0,VALID,93.82,VALID,52.695,VALID,24.5017,VALID,360,VALID,0,
2008-07-29, 06:40:04,VALID,1004.31,VALID,0,VALID,93.6826,VALID,53.1978,VALID,24.6009,VALID,360,VALID,0.266016,
2008-07-29, 06:41:04,VALID,1004.29,VALID,0,VALID,93.2325,VALID,54.4046,VALID,24.6185,VALID,360,VALID,0.0800781,
2008-07-29, 06:42:04,VALID,1004.3,VALID,0,VALID,92.8892,VALID,56.2147,VALID,24.6574,VALID,360,VALID,0.268359,
2008-07-29, 06:43:04,VALID,1004.28,VALID,0,VALID,92.7901,VALID,57.9243,VALID,24.6964,VALID,360,VALID,0.0738281,
2008-07-29, 06:44:04,VALID,1004.26,VALID,0,VALID,92.4086,VALID,59.131,VALID,24.7548,VALID,360,VALID,0.472266,
2008-07-29, 06:45:04,VALID,1004.26,VALID,0,VALID,92.2179,VALID,60.4383,VALID,24.7743,VALID,360,VALID,0.192969,
2008-07-29, 06:46:04,VALID,1004.31,VALID,0,VALID,92.1798,VALID,62.2485,VALID,24.8735,VALID,360,VALID,0.0132813,
2008-07-29, 06:47:04,VALID,1004.34,VALID,0,VALID,91.8136,VALID,71.1986,VALID,24.8911,VALID,360,VALID,0,
2008-07-29, 06:48:04,VALID,1004.35,VALID,0,VALID,91.7449,VALID,92.2162,VALID,24.969,VALID,360,VALID,0,
2008-07-29, 06:49:04,VALID,1004.35,VALID,0,VALID,91.4245,VALID,113.938,VALID,25.0488,VALID,360,VALID,0,
2008-07-29, 06:50:04,VALID,1004.4,VALID,0,VALID,91.1728,VALID,124.799,VALID,25.1656,VALID,360,VALID,0,
2008-07-29, 06:51:04,VALID,1004.44,VALID,0,VALID,90.9515,VALID,132.643,VALID,25.263,VALID,360,VALID,0,
2008-07-29, 06:52:04,VALID,1004.47,VALID,0,VALID,90.1276,VALID,137.268,VALID,25.3214,VALID,360,VALID,0,
2008-07-29, 06:53:04,VALID,1004.48,VALID,0,VALID,89.6317,VALID,136.263,VALID,25.3993,VALID,360,VALID,0.282031,
2008-07-29, 06:54:04,VALID,1004.48,VALID,0,VALID,89.174,VALID,131.134,VALID,25.4753,VALID,360,VALID,0.192188,
2008-07-29, 06:55:04,VALID,1004.51,VALID,0,VALID,88.3806,VALID,125.201,VALID,25.5551,VALID,360,VALID,0.308984,
2008-07-29, 06:56:04,VALID,1004.51,VALID,0,VALID,88.8307,VALID,125.905,VALID,25.635,VALID,360,VALID,0.374609,
2008-07-29, 06:57:04,VALID,1004.54,VALID,0,VALID,88.3501,VALID,133.346,VALID,25.672,VALID,360,VALID,0.363672,
2008-07-29, 06:58:04,VALID,1004.53,VALID,0,VALID,88.64,VALID,144.107,VALID,25.7285,VALID,360,VALID,0.527734,
2008-07-29, 06:59:04,VALID,1004.51,VALID,0,VALID,88.5637,VALID,158.085,VALID,25.7889,VALID,360,VALID,0.476563,
2008-07-29, 07:00:04,VALID,1004.52,VALID,0,VALID,88.4035,VALID,170.555,VALID,25.8473,VALID,360,VALID,0.404687,
2008-07-29, 07:01:04,VALID,1004.53,VALID,0,VALID,88.2661,VALID,181.416,VALID,25.9447,VALID,360,VALID,0.0914062,
2008-07-29, 07:02:04,VALID,1004.54,VALID,0,VALID,87.343,VALID,189.762,VALID,26.0421,VALID,356,VALID,0.192578,
2008-07-29, 07:03:04,VALID,1004.54,VALID,0,VALID,87.1676,VALID,196.802,VALID,26.1395,VALID,355,VALID,0.129688,
2008-07-29, 07:04:04,VALID,1004.55,VALID,0,VALID,86.1224,VALID,202.232,VALID,26.2973,VALID,355,VALID,0.179688,
2008-07-29, 07:05:04,VALID,1004.54,VALID,0,VALID,85.5808,VALID,205.953,VALID,26.3947,VALID,354,VALID,0.464063,
2008-07-29, 07:06:04,VALID,1004.56,VALID,0,VALID,85.2909,VALID,209.774,VALID,26.4317,VALID,9,VALID,0.474219,
2008-07-29, 07:07:04,VALID,1004.57,VALID,0,VALID,84.3068,VALID,213.998,VALID,26.5096,VALID,8,VALID,0.551172,
2008-07-29, 07:08:04,VALID,1004.57,VALID,0,VALID,84.1466,VALID,218.02,VALID,26.5876,VALID,5,VALID,0.603516,
2008-07-29, 07:09:04,VALID,1004.59,VALID,0,VALID,83.7498,VALID,220.434,VALID,26.685,VALID,355,VALID,0.440625,
2008-07-29, 07:10:04,VALID,1004.55,VALID,0,VALID,83.46,VALID,222.646,VALID,26.7629,VALID,353,VALID,0.516016,
2008-07-29, 07:11:04,VALID,1004.52,VALID,0,VALID,83.7804,VALID,224.557,VALID,26.8624,VALID,353,VALID,0.458984,
2008-07-29, 07:12:04,VALID,1004.57,VALID,0,VALID,84.322,VALID,226.769,VALID,26.9167,VALID,353,VALID,0.446484,
2008-07-29, 07:13:04,VALID,1004.55,VALID,0,VALID,82.842,VALID,227.976,VALID,27.0162,VALID,348,VALID,0.869531,
2008-07-29, 07:14:04,VALID,1004.57,VALID,0,VALID,82.9717,VALID,230.088,VALID,27.1157,VALID,268,VALID,0.385938,
2008-07-29, 07:15:04,VALID,1004.59,VALID,0,VALID,82.8191,VALID,235.217,VALID,27.25,VALID,287,VALID,0.110937,
2008-07-29, 07:16:04,VALID,1004.64,VALID,0,VALID,79.7905,VALID,240.848,VALID,27.3475,VALID,293,VALID,0.694531,
2008-07-29, 07:17:04,VALID,1004.63,VALID,0,VALID,80.2482,VALID,246.078,VALID,27.3865,VALID,326,VALID,0.346875,
2008-07-29, 07:18:04,VALID,1004.69,VALID,0,VALID,79.615,VALID,251.608,VALID,27.4623,VALID,334,VALID,0.430469,
2008-07-29, 07:19:04,VALID,1004.72,VALID,0,VALID,77.4713,VALID,255.933,VALID,27.5208,VALID,284,VALID,1.32617,
2008-07-29, 07:20:04,VALID,1004.76,VALID,0,VALID,78.7453,VALID,259.352,VALID,27.5013,VALID,284,VALID,0.897656,
2008-07-29, 07:21:04,VALID,1004.79,VALID,0,VALID,78.7529,VALID,262.168,VALID,27.5229,VALID,295,VALID,0.779688,
2008-07-29, 07:22:04,VALID,1004.76,VALID,0,VALID,79.3709,VALID,264.38,VALID,27.5034,VALID,299,VALID,1.0875,
2008-07-29, 07:23:04,VALID,1004.74,VALID,0,VALID,79.5997,VALID,265.386,VALID,27.4275,VALID,285,VALID,1.17617,
2008-07-29, 07:24:04,VALID,1004.78,VALID,0,VALID,79.0581,VALID,268,VALID,27.3085,VALID,292,VALID,1.3082,
2008-07-29, 07:25:04,VALID,1004.72,VALID,0,VALID,80.9348,VALID,270.917,VALID,27.2111,VALID,294,VALID,1.13828,
2008-07-29, 07:26:04,VALID,1004.73,VALID,0,VALID,81.774,VALID,274.034,VALID,27.2521,VALID,291,VALID,0.499219,
2008-07-29, 07:27:04,VALID,1004.74,VALID,0,VALID,81.5375,VALID,277.252,VALID,27.3475,VALID,313,VALID,0.512109,
2008-07-29, 07:28:04,VALID,1004.74,VALID,0,VALID,79.1878,VALID,280.671,VALID,27.4449,VALID,292,VALID,1.67656,
2008-07-29, 07:29:04,VALID,1004.77,VALID,0,VALID,80.3779,VALID,284.995,VALID,27.3865,VALID,315,VALID,0.426953,
2008-07-29, 07:30:04,VALID,1004.77,VALID,0,VALID,80.2024,VALID,287.61,VALID,27.4275,VALID,8,VALID,0.671875,
2008-07-29, 07:31:04,VALID,1004.74,VALID,0,VALID,79.8057,VALID,288.515,VALID,27.4644,VALID,286,VALID,1.57539,
2008-07-29, 07:32:04,VALID,1004.75,VALID,0,VALID,79.9659,VALID,291.13,VALID,27.4644,VALID,349,VALID,1.05,
2008-07-29, 07:33:04,VALID,1004.78,VALID,0,VALID,80.9729,VALID,295.454,VALID,27.5034,VALID,335,VALID,0.511719,
2008-07-29, 07:34:04,VALID,1004.77,VALID,0,VALID,80.7593,VALID,300.382,VALID,27.6008,VALID,353,VALID,0.664453,
2008-07-29, 07:35:04,VALID,1004.78,VALID,0,VALID,79.5235,VALID,305.007,VALID,27.7199,VALID,1,VALID,1.39961,
2008-07-29, 07:36:04,VALID,1004.8,VALID,0,VALID,79.0733,VALID,308.929,VALID,27.6398,VALID,359,VALID,1.0957,
2008-07-29, 07:37:04,VALID,1004.8,VALID,0,VALID,79.5006,VALID,311.745,VALID,27.6614,VALID,360,VALID,0.902734,
2008-07-29, 07:38:04,VALID,1004.87,VALID,0,VALID,79.3404,VALID,315.667,VALID,27.5813,VALID,354,VALID,1.38125,
2008-07-29, 07:39:04,VALID,1004.89,VALID,0,VALID,79.1039,VALID,318.684,VALID,27.5444,VALID,12,VALID,0.776172,
2008-07-29, 07:40:04,VALID,1004.91,VALID,0,VALID,79.9964,VALID,322.807,VALID,27.5813,VALID,7,VALID,0.834766,
2008-07-29, 07:41:04,VALID,1004.93,VALID,0,VALID,79.3327,VALID,326.427,VALID,27.6203,VALID,2,VALID,0.802734,
2008-07-29, 07:42:04,VALID,1004.97,VALID,0,VALID,79.5235,VALID,329.545,VALID,27.6419,VALID,305,VALID,0.464063,
2008-07-29, 07:43:04,VALID,1004.97,VALID,0,VALID,79.6837,VALID,331.657,VALID,27.7415,VALID,1,VALID,0.497266,
2008-07-29, 07:44:04,VALID,1004.96,VALID,0,VALID,79.5769,VALID,334.673,VALID,27.8152,VALID,345,VALID,0.590625,
2008-07-29, 07:45:04,VALID,1004.96,VALID,0,VALID,79.2183,VALID,339.903,VALID,27.9321,VALID,326,VALID,0.35625,
2008-07-29, 07:46:04,VALID,1004.99,VALID,0,VALID,79.0886,VALID,344.126,VALID,28.1292,VALID,340,VALID,0.0480469,
2008-07-29, 07:47:04,VALID,1004.98,VALID,0,VALID,77.9366,VALID,348.249,VALID,28.3025,VALID,321,VALID,0.483203,
2008-07-29, 07:48:04,VALID,1004.98,VALID,0,VALID,77.5705,VALID,350.965,VALID,28.4216,VALID,351,VALID,0.562891,
2008-07-29, 07:49:04,VALID,1005.01,VALID,0,VALID,77.1738,VALID,351.568,VALID,28.5754,VALID,345,VALID,0.428516,
2008-07-29, 07:50:04,VALID,1005.01,VALID,0,VALID,76.8991,VALID,354.183,VALID,28.6556,VALID,342,VALID,1.75195,
2008-07-29, 07:51:04,VALID,1005.02,VALID,0,VALID,77.2119,VALID,357.803,VALID,28.6534,VALID,358,VALID,0.478906,
2008-07-29, 07:52:04,VALID,1005.01,VALID,0,VALID,75.9455,VALID,363.535,VALID,28.6945,VALID,301,VALID,1.41914,
2008-07-29, 07:53:04,VALID,1005.02,VALID,0,VALID,77.5323,VALID,366.351,VALID,28.5971,VALID,340,VALID,0.804688,
2008-07-29, 07:54:04,VALID,1005.02,VALID,0,VALID,77.0975,VALID,367.859,VALID,28.4974,VALID,279,VALID,0.755859,
2008-07-29, 07:55:04,VALID,1005.03,VALID,0,VALID,76.5711,VALID,373.591,VALID,28.4801,VALID,247,VALID,0.998828,
2008-07-29, 07:56:04,VALID,1005.01,VALID,0,VALID,77.4408,VALID,379.927,VALID,28.5191,VALID,280,VALID,0.983203,
2008-07-29, 07:57:04,VALID,1005.05,VALID,0,VALID,77.868,VALID,378.821,VALID,28.5971,VALID,274,VALID,0.354688,
2008-07-29, 07:58:04,VALID,1005.06,VALID,0,VALID,76.037,VALID,365.546,VALID,28.6361,VALID,273,VALID,0.675391,
2008-07-29, 07:59:04,VALID,1005.07,VALID,0,VALID,75.2971,VALID,391.492,VALID,28.5927,VALID,289,VALID,1.11758,
2008-07-29, 08:00:04,VALID,1005.08,VALID,0,VALID,75.5717,VALID,400.643,VALID,28.5364,VALID,296,VALID,1.89727,
2008-07-29, 08:01:04,VALID,1005.15,VALID,0,VALID,76.655,VALID,254.726,VALID,28.322,VALID,303,VALID,1.25156,
2008-07-29, 08:02:04,VALID,1005.14,VALID,0,VALID,77.4255,VALID,406.375,VALID,28.1466,VALID,293,VALID,0.905078,
2008-07-29, 08:03:04,VALID,1005.14,VALID,0,VALID,77.662,VALID,413.817,VALID,28.0686,VALID,297,VALID,1.10195,
2008-07-29, 08:04:04,VALID,1005.14,VALID,0,VALID,77.9748,VALID,415.627,VALID,28.0881,VALID,290,VALID,0.945703,
2008-07-29, 08:05:04,VALID,1005.16,VALID,0,VALID,78.6156,VALID,413.113,VALID,28.205,VALID,295,VALID,0.632813,
2008-07-29, 08:06:04,VALID,1005.17,VALID,0,VALID,78.135,VALID,416.833,VALID,28.3025,VALID,287,VALID,1.18633,
2008-07-29, 08:07:04,VALID,1005.2,VALID,0,VALID,77.6162,VALID,425.281,VALID,28.361,VALID,287,VALID,0.817187,
2008-07-29, 08:08:04,VALID,1005.21,VALID,0,VALID,78.2571,VALID,433.024,VALID,28.4194,VALID,282,VALID,1.26094,
2008-07-29, 08:09:04,VALID,1005.24,VALID,0,VALID,78.7224,VALID,437.851,VALID,28.5754,VALID,305,VALID,0.479688,
2008-07-29, 08:10:04,VALID,1005.22,VALID,0,VALID,77.0364,VALID,446.499,VALID,28.7097,VALID,229,VALID,0.970703,
2008-07-29, 08:11:04,VALID,1005.23,VALID,0,VALID,76.5253,VALID,455.751,VALID,28.7509,VALID,235,VALID,1.06016,
2008-07-29, 08:12:04,VALID,1005.25,VALID,0,VALID,76.5177,VALID,467.517,VALID,28.7509,VALID,222,VALID,0.401172,
2008-07-29, 08:13:04,VALID,1005.26,VALID,0,VALID,76.2888,VALID,482.803,VALID,28.8115,VALID,252,VALID,0.887891,
2008-07-29, 08:14:04,VALID,1005.23,VALID,0,VALID,76.1973,VALID,504.223,VALID,28.7119,VALID,291,VALID,1.01406,
2008-07-29, 08:15:04,VALID,1005.28,VALID,0,VALID,76.7236,VALID,532.179,VALID,28.7314,VALID,331,VALID,0.494922,
2008-07-29, 08:16:04,VALID,1005.26,VALID,0,VALID,75.2894,VALID,553.297,VALID,28.8678,VALID,295,VALID,2.03047,
2008-07-29, 08:17:04,VALID,1005.24,VALID,0,VALID,76.7389,VALID,569.488,VALID,28.9675,VALID,264,VALID,0.532812,
2008-07-29, 08:18:04,VALID,1005.22,VALID,0,VALID,74.7554,VALID,542.537,VALID,29.0238,VALID,292,VALID,1.68984,
2008-07-29, 08:19:04,VALID,1005.25,VALID,0,VALID,76.2507,VALID,606.093,VALID,28.9263,VALID,288,VALID,1.16484,
2008-07-29, 08:20:04,VALID,1005.24,VALID,0,VALID,75.8921,VALID,441.572,VALID,28.9848,VALID,245,VALID,0.963281,
2008-07-29, 08:21:04,VALID,1005.23,VALID,0,VALID,75.0071,VALID,605.49,VALID,29.0238,VALID,283,VALID,0.444922,
2008-07-29, 08:22:04,VALID,1005.23,VALID,0,VALID,75.9074,VALID,233.608,VALID,29.26,VALID,256,VALID,0.658203,
2008-07-29, 08:23:04,VALID,1005.23,VALID,0,VALID,74.5342,VALID,255.631,VALID,29.2795,VALID,272,VALID,1.2043,
2008-07-29, 08:24:04,VALID,1005.23,VALID,0,VALID,75.3123,VALID,645.312,VALID,29.26,VALID,261,VALID,0.675,
2008-07-29, 08:25:04,VALID,1005.23,VALID,0,VALID,75.2894,VALID,632.641,VALID,29.221,VALID,244,VALID,1.1625,
2008-07-29, 08:26:04,VALID,1005.22,VALID,0,VALID,74.9919,VALID,630.731,VALID,29.1625,VALID,255,VALID,0.965234,
2008-07-29, 08:27:04,VALID,1005.18,VALID,0,VALID,74.5952,VALID,598.651,VALID,29.143,VALID,304,VALID,1.9332,
2008-07-29, 08:28:04,VALID,1005.19,VALID,0,VALID,74.9385,VALID,529.464,VALID,29.143,VALID,274,VALID,1.05625,
2008-07-29, 08:29:04,VALID,1005.19,VALID,0,VALID,73.7255,VALID,284.392,VALID,29.1993,VALID,253,VALID,0.765625,
2008-07-29, 08:30:04,VALID,1005.18,VALID,0,VALID,73.4509,VALID,373.189,VALID,29.1993,VALID,251,VALID,0.560156,
2008-07-29, 08:31:04,VALID,1005.18,VALID,0,VALID,73.2449,VALID,559.029,VALID,29.2188,VALID,225,VALID,0.610937,
2008-07-29, 08:32:04,VALID,1005.19,VALID,0,VALID,73.8933,VALID,186.041,VALID,29.2188,VALID,327,VALID,1.10508,
2008-07-29, 08:33:04,VALID,1005.2,VALID,0,VALID,75.8616,VALID,360.82,VALID,29.1625,VALID,296,VALID,0.814062,
2008-07-29, 08:34:04,VALID,1005.21,VALID,0,VALID,74.1298,VALID,496.379,VALID,29.104,VALID,271,VALID,0.928125,
2008-07-29, 08:35:04,VALID,1005.22,VALID,0,VALID,74.1832,VALID,614.037,VALID,29.0433,VALID,274,VALID,0.688281,
2008-07-29, 08:36:04,VALID,1005.23,VALID,0,VALID,75.4954,VALID,289.219,VALID,29.1191,VALID,239,VALID,0.432031,
2008-07-29, 08:37:04,VALID,1005.21,VALID,0,VALID,73.4737,VALID,171.359,VALID,29.1798,VALID,284,VALID,1.19531,
2008-07-29, 08:38:04,VALID,1005.24,VALID,0,VALID,74.8622,VALID,159.091,VALID,29.0455,VALID,292,VALID,1.23008,
2008-07-29, 08:39:04,VALID,1005.19,VALID,0,VALID,75.5793,VALID,158.889,VALID,28.8873,VALID,188,VALID,0.541406,
2008-07-29, 08:40:04,VALID,1005.2,VALID,0,VALID,74.8546,VALID,173.471,VALID,28.8288,VALID,280,VALID,1.07344,
2008-07-29, 08:41:04,VALID,1005.22,VALID,0,VALID,74.9538,VALID,457.763,VALID,28.7119,VALID,286,VALID,2.05547,
2008-07-29, 08:42:04,VALID,1005.23,VALID,0,VALID,76.2201,VALID,682.32,VALID,28.6339,VALID,284,VALID,1.08594,
2008-07-29, 08:43:04,VALID,1005.25,VALID,0,VALID,75.8006,VALID,685.236,VALID,28.7704,VALID,286,VALID,1.21602,
2008-07-29, 08:44:04,VALID,1005.27,VALID,0,VALID,76.3575,VALID,582.36,VALID,28.9653,VALID,290,VALID,0.629687,
2008-07-29, 08:45:04,VALID,1005.3,VALID,0,VALID,74.4884,VALID,600.059,VALID,29.221,VALID,283,VALID,1.35078,
2008-07-29, 08:46:04,VALID,1005.31,VALID,0,VALID,73.1152,VALID,342.618,VALID,29.2383,VALID,287,VALID,1.12266,
2008-07-29, 08:47:04,VALID,1005.31,VALID,0,VALID,75.1292,VALID,264.078,VALID,29.2188,VALID,272,VALID,0.526172,
2008-07-29, 08:48:04,VALID,1005.29,VALID,0,VALID,72.1997,VALID,255.329,VALID,29.1993,VALID,289,VALID,1.99844,
2008-07-29, 08:49:04,VALID,1005.27,VALID,0,VALID,73.2296,VALID,730.087,VALID,29.0043,VALID,295,VALID,1.88164,
2008-07-29, 08:50:04,VALID,1005.25,VALID,0,VALID,73.9315,VALID,714.399,VALID,28.8678,VALID,280,VALID,0.874609,
2008-07-29, 08:51:04,VALID,1005.2,VALID,0,VALID,74.8164,VALID,716.41,VALID,28.909,VALID,300,VALID,1.38398,
2008-07-29, 08:52:04,VALID,1005.16,VALID,0,VALID,74.2443,VALID,718.321,VALID,29.1018,VALID,242,VALID,0.519141,
2008-07-29, 08:53:04,VALID,1005.13,VALID,0,VALID,73.1304,VALID,725.763,VALID,29.2773,VALID,327,VALID,1.41133,
2008-07-29, 08:54:04,VALID,1005.12,VALID,0,VALID,74.0764,VALID,745.976,VALID,29.3163,VALID,244,VALID,1.09023,
2008-07-29, 08:55:04,VALID,1005.1,VALID,0,VALID,71.803,VALID,293.342,VALID,29.4918,VALID,265,VALID,1.77656,
2008-07-29, 08:56:04,VALID,1005.12,VALID,0,VALID,72.1845,VALID,218.02,VALID,29.5503,VALID,285,VALID,1.5793,
2008-07-29, 08:57:04,VALID,1005.13,VALID,0,VALID,72.8406,VALID,192.578,VALID,29.4723,VALID,294,VALID,1.00742,
2008-07-29, 08:58:04,VALID,1005.13,VALID,0,VALID,73.2754,VALID,184.533,VALID,29.3748,VALID,258,VALID,0.777734,
2008-07-29, 08:59:04,VALID,1005.15,VALID,0,VALID,72.7795,VALID,213.193,VALID,29.26,VALID,227,VALID,0.625781,
2008-07-29, 09:00:04,VALID,1005.15,VALID,0,VALID,73.6492,VALID,218.724,VALID,29.1018,VALID,218,VALID,0.778516,
2008-07-29, 09:01:04,VALID,1005.11,VALID,0,VALID,74.9538,VALID,180.41,VALID,28.9848,VALID,216,VALID,1.49922,
2008-07-29, 09:02:04,VALID,1005.13,VALID,0,VALID,76.4338,VALID,171.661,VALID,28.8093,VALID,184,VALID,0.455859,
2008-07-29, 09:03:04,VALID,1005.13,VALID,0,VALID,77.1356,VALID,160.901,VALID,28.7725,VALID,242,VALID,0.8125,
2008-07-29, 09:04:04,VALID,1005.12,VALID,0,VALID,74.6791,VALID,167.337,VALID,28.6729,VALID,253,VALID,0.457812,
2008-07-29, 09:05:04,VALID,1005.12,VALID,0,VALID,74.4884,VALID,161.806,VALID,28.6144,VALID,262,VALID,0.919141,
2008-07-29, 09:06:04,VALID,1005.1,VALID,0,VALID,75.4344,VALID,156.476,VALID,28.5559,VALID,238,VALID,0.760156,
2008-07-29, 09:07:04,VALID,1005.12,VALID,0,VALID,75.8463,VALID,149.839,VALID,28.4,VALID,214,VALID,1.72695,
2008-07-29, 09:08:04,VALID,1005.11,VALID,0,VALID,77.3874,VALID,126.408,VALID,28.2245,VALID,192,VALID,1.125,
2008-07-29, 09:09:04,VALID,1005.14,VALID,0,VALID,78.6309,VALID,135.659,VALID,28.1271,VALID,213,VALID,0.924609,
2008-07-29, 09:10:04,VALID,1005.15,VALID,0,VALID,76.6397,VALID,175.181,VALID,28.0296,VALID,208,VALID,1.90586,
2008-07-29, 09:11:04,VALID,1005.12,VALID,0,VALID,78.0968,VALID,231.295,VALID,27.9127,VALID,267,VALID,0.751562,
2008-07-29, 09:12:04,VALID,1005.17,VALID,0,VALID,79.6226,VALID,360.92,VALID,27.9127,VALID,220,VALID,0.292969,
2008-07-29, 09:13:04,VALID,1005.12,VALID,0,VALID,78.6385,VALID,577.634,VALID,27.9538,VALID,221,VALID,0.778906,
2008-07-29, 09:14:04,VALID,1005.14,VALID,0,VALID,78.3486,VALID,767.496,VALID,28.0296,VALID,209,VALID,1.51602,
2008-07-29, 09:15:04,VALID,1005.14,VALID,0,VALID,78.9665,VALID,797.364,VALID,28.1271,VALID,211,VALID,2.0707,
2008-07-29, 09:16:04,VALID,1005.15,VALID,0,VALID,78.2265,VALID,317.176,VALID,28.205,VALID,186,VALID,1.55195,
2008-07-29, 09:17:04,VALID,1005.12,VALID,0,VALID,77.5323,VALID,262.469,VALID,28.2245,VALID,195,VALID,1.81562,
2008-07-29, 09:18:04,VALID,1005.17,VALID,0,VALID,79.554,VALID,247.184,VALID,28.244,VALID,207,VALID,0.566016,
2008-07-29, 09:19:04,VALID,1005.15,VALID,0,VALID,78.6843,VALID,237.53,VALID,28.3025,VALID,236,VALID,0.54375,
2008-07-29, 09:20:04,VALID,1005.14,VALID,0,VALID,77.9824,VALID,223.652,VALID,28.3588,VALID,205,VALID,0.88125,
2008-07-29, 09:21:04,VALID,1005.14,VALID,0,VALID,78.5775,VALID,216.814,VALID,28.4194,VALID,217,VALID,0.412891,
2008-07-29, 09:22:04,VALID,1005.17,VALID,0,VALID,78.9131,VALID,213.495,VALID,28.4974,VALID,211,VALID,0.705469,
2008-07-29, 09:23:04,VALID,1005.15,VALID,0,VALID,77.7917,VALID,205.953,VALID,28.5537,VALID,231,VALID,0.349609,
2008-07-29, 09:24:04,VALID,1005.17,VALID,0,VALID,78.2494,VALID,204.746,VALID,28.5732,VALID,351,VALID,0.237891,
2008-07-29, 09:25:04,VALID,1005.13,VALID,0,VALID,77.8298,VALID,208.568,VALID,28.6122,VALID,248,VALID,0.354297,
2008-07-29, 09:26:04,VALID,1005.12,VALID,0,VALID,76.0676,VALID,215.305,VALID,28.6512,VALID,211,VALID,0.78125,
2008-07-29, 09:27:04,VALID,1005.07,VALID,0,VALID,76.983,VALID,219.73,VALID,28.5927,VALID,171,VALID,0.377344,
2008-07-29, 09:28:04,VALID,1005.05,VALID,0,VALID,76.5558,VALID,296.258,VALID,28.5364,VALID,231,VALID,0.827344,
2008-07-29, 09:29:04,VALID,1005.02,VALID,0,VALID,76.5711,VALID,273.833,VALID,28.4411,VALID,200,VALID,1.15352,
2008-07-29, 09:30:04,VALID,1005.04,VALID,0,VALID,76.7236,VALID,254.525,VALID,28.3436,VALID,176,VALID,0.721094,
2008-07-29, 09:31:04,VALID,1005,VALID,0,VALID,77.2348,VALID,240.044,VALID,28.3241,VALID,200,VALID,1.05781,
2008-07-29, 09:32:04,VALID,1005.02,VALID,0,VALID,77.6162,VALID,211.786,VALID,28.3415,VALID,196,VALID,0.205859,
2008-07-29, 09:33:04,VALID,1005.03,VALID,0,VALID,76.4261,VALID,213.395,VALID,28.4,VALID,283,VALID,0.9625,
2008-07-29, 09:34:04,VALID,1005.04,VALID,0,VALID,76.6931,VALID,266.793,VALID,28.4194,VALID,169,VALID,0.646484,
2008-07-29, 09:35:04,VALID,1005.05,VALID,0,VALID,76.4414,VALID,534.391,VALID,28.4194,VALID,283,VALID,0.662109,
2008-07-29, 09:36:04,VALID,1005.04,VALID,0,VALID,77.0288,VALID,862.629,VALID,28.6166,VALID,268,VALID,0.292578,
2008-07-29, 09:37:04,VALID,1005.03,VALID,0,VALID,74.9766,VALID,752.814,VALID,28.9653,VALID,270,VALID,0.892578,
2008-07-29, 09:38:04,VALID,1005.03,VALID,0,VALID,73.1839,VALID,315.164,VALID,29.26,VALID,198,VALID,0.535547,
2008-07-29, 09:39:04,VALID,1005.02,VALID,0,VALID,71.8793,VALID,446.198,VALID,29.4355,VALID,202,VALID,1.33633,
2008-07-29, 09:40:04,VALID,1005.03,VALID,0,VALID,72.4133,VALID,648.832,VALID,29.377,VALID,222,VALID,0.482422,
2008-07-29, 09:41:04,VALID,1004.98,VALID,0,VALID,73.077,VALID,303.298,VALID,29.3748,VALID,164,VALID,0.600781,
2008-07-29, 09:42:04,VALID,1005.02,VALID,0,VALID,73.2449,VALID,265.687,VALID,29.416,VALID,224,VALID,0.701563,
2008-07-29, 09:43:04,VALID,1004.97,VALID,0,VALID,71.7115,VALID,250.301,VALID,29.4333,VALID,253,VALID,0.946484,
2008-07-29, 09:44:04,VALID,1004.99,VALID,0,VALID,72.8482,VALID,231.798,VALID,29.3553,VALID,209,VALID,1.19961,
2008-07-29, 09:45:04,VALID,1004.99,VALID,0,VALID,73.5729,VALID,225.563,VALID,29.299,VALID,259,VALID,0.242188,
2008-07-29, 09:46:04,VALID,1004.99,VALID,0,VALID,72.3523,VALID,218.121,VALID,29.0823,VALID,186,VALID,1.22031,
2008-07-29, 09:47:04,VALID,1005.03,VALID,0,VALID,74.0841,VALID,292.94,VALID,28.8678,VALID,214,VALID,0.608203,
2008-07-29, 09:48:04,VALID,1005.05,VALID,0,VALID,72.6498,VALID,182.119,VALID,28.6945,VALID,202,VALID,1.88008,
2008-07-29, 09:49:04,VALID,1005.05,VALID,0,VALID,74.6105,VALID,187.047,VALID,28.5407,VALID,273,VALID,0.637891,
2008-07-29, 09:50:04,VALID,1005.03,VALID,0,VALID,75.236,VALID,211.283,VALID,28.4996,VALID,194,VALID,0.711328,
2008-07-29, 09:51:04,VALID,1005.04,VALID,0,VALID,74.7478,VALID,364.34,VALID,28.4779,VALID,234,VALID,0.659766,
2008-07-29, 09:52:04,VALID,1005.06,VALID,0,VALID,76.0599,VALID,561.644,VALID,28.5364,VALID,202,VALID,1.38359,
2008-07-29, 09:53:04,VALID,1005.07,VALID,0,VALID,74.8775,VALID,565.164,VALID,28.5971,VALID,263,VALID,0.713672,
2008-07-29, 09:54:04,VALID,1005.08,VALID,0,VALID,73.0847,VALID,825.823,VALID,28.7509,VALID,215,VALID,0.614844,
2008-07-29, 09:55:04,VALID,1005.06,VALID,0,VALID,73.7408,VALID,823.912,VALID,28.987,VALID,295,VALID,0.966406,
2008-07-29, 09:56:04,VALID,1005.06,VALID,0,VALID,72.4438,VALID,817.979,VALID,29.2578,VALID,270,VALID,0.871484,
2008-07-29, 09:57:04,VALID,1005.04,VALID,0,VALID,71.3758,VALID,832.963,VALID,29.5113,VALID,180,VALID,1.62148,
2008-07-29, 09:58:04,VALID,1005.05,VALID,0,VALID,69.6669,VALID,861.221,VALID,29.5698,VALID,173,VALID,2.06953,
2008-07-29, 09:59:04,VALID,1005.05,VALID,0,VALID,70.941,VALID,314.259,VALID,29.5915,VALID,187,VALID,1.63789,
2008-07-29, 10:00:04,VALID,1005.1,VALID,0,VALID,70.59,VALID,528.458,VALID,29.4745,VALID,194,VALID,1.23242,
2008-07-29, 10:01:04,VALID,1005.12,VALID,0,VALID,70.6358,VALID,515.687,VALID,29.2968,VALID,192,VALID,1.26211,
2008-07-29, 10:02:04,VALID,1005.15,VALID,0,VALID,69.7509,VALID,819.286,VALID,29.1408,VALID,204,VALID,1.58711,
2008-07-29, 10:03:04,VALID,1005.16,VALID,0,VALID,70.9867,VALID,406.677,VALID,29.0845,VALID,218,VALID,2.52539,
2008-07-29, 10:04:04,VALID,1005.17,VALID,0,VALID,72.4973,VALID,779.765,VALID,29.065,VALID,184,VALID,1.7332,